2023/05/12 00:00:00,54.9, 6.7
2023/05/12 00:10:00,54.9, 6.3
2023/05/12 00:20:00,54.9, 6.3
2023/05/12 00:30:00,54.6, 6.4
2023/05/12 00:40:00,54.7, 6.4
2023/05/12 00:50:00,54.0, 6.4
2023/05/12 01:00:00,54.2, 6.0
2023/05/12 01:10:00,54.9, 6.1
2023/05/12 01:20:00,55.1, 6.0
2023/05/12 01:30:00,54.8, 5.8
2023/05/12 01:40:00,54.8, 6.0
2023/05/12 01:50:00,55.4, 6.0
2023/05/12 02:00:00,55.3, 5.9
2023/05/12 02:10:00,55.4, 5.9
2023/05/12 02:20:00,55.1, 5.7
2023/05/12 02:30:00,55.1, 5.5
2023/05/12 02:40:00,54.9, 5.4
2023/05/12 02:50:00,55.1, 5.3
2023/05/12 03:00:00,55.2, 5.1
2023/05/12 03:10:00,55.3, 5.0
2023/05/12 03:20:00,55.1, 5.1
2023/05/12 03:30:00,55.1, 5.2
2023/05/12 03:40:00,55.2, 4.9
2023/05/12 03:50:00,54.9, 4.6
2023/05/12 04:00:00,55.3, 4.6
2023/05/12 04:10:00,55.5, 4.5
2023/05/12 04:20:00,55.5, 4.5
2023/05/12 04:30:00,56.4, 4.4
2023/05/12 04:40:00,55.6, 4.2
2023/05/12 04:50:00,55.6, 4.2
2023/05/12 05:00:00,55.8, 4.2
2023/05/12 05:10:00,55.5, 4.5
2023/05/12 05:20:00,55.3, 4.0
2023/05/12 05:30:00,55.6, 4.6
2023/05/12 05:40:00,55.7, 4.6
2023/05/12 05:50:00,55.5, 5.0
2023/05/12 06:00:00,55.4, 5.1
2023/05/12 06:10:00,55.1, 5.6
2023/05/12 06:20:00,55.2, 5.9
2023/05/12 06:30:00,56.1, 6.7
2023/05/12 06:40:00,57.2, 7.4
2023/05/12 06:50:00,56.7, 8.2
2023/05/12 07:00:00,57.3, 9.2
2023/05/12 07:10:00,56.8,10.1
2023/05/12 07:20:00,56.8,10.9
2023/05/12 07:30:00,57.3,12.0
2023/05/12 07:40:00,57.1,12.8
2023/05/12 07:50:00,56.9,13.7
2023/05/12 08:00:00,56.2,14.3
2023/05/12 08:10:00,56.2,15.2
2023/05/12 08:20:00,56.1,15.4
2023/05/12 08:30:00,55.9,16.8
2023/05/12 08:40:00,55.9,17.0
2023/05/12 08:50:00,55.9,18.0
2023/05/12 09:00:00,56.3,19.1
2023/05/12 09:10:00,56.3,20.1
2023/05/12 09:20:00,56.3,20.8
2023/05/12 09:30:00,56.0,22.6
2023/05/12 09:40:00,55.9,23.5
2023/05/12 09:50:00,56.1,23.6
2023/05/12 10:00:00,56.0,24.9
2023/05/12 10:10:00,56.2,24.9
2023/05/12 10:20:00,57.8,26.8
2023/05/12 10:30:00,56.4,26.7
2023/05/12 10:40:00,55.4,27.0
2023/05/12 10:50:00,55.1,26.2
2023/05/12 11:00:00,54.7,25.9
2023/05/12 11:10:00,54.9,26.4
2023/05/12 11:20:00,53.9,26.4
2023/05/12 11:30:00,52.8,26.4
2023/05/12 11:40:00,52.8,26.5
2023/05/12 11:50:00,52.4,26.8
2023/05/12 12:00:00,53.1,26.7
2023/05/12 12:10:00,53.2,27.0
2023/05/12 12:20:00,53.0,26.4
2023/05/12 12:30:00,52.2,26.2
2023/05/12 12:40:00,50.0,25.1
2023/05/12 12:50:00,47.8,25.6
2023/05/12 13:00:00,50.0,25.8
2023/05/12 13:10:00,51.2,25.8
2023/05/12 13:20:00,52.1,26.3
2023/05/12 13:30:00,49.8,25.6
2023/05/12 13:40:00,47.7,26.3
2023/05/12 13:50:00,50.8,26.4
2023/05/12 14:00:00,49.9,27.0
2023/05/12 14:10:00,52.0,26.9
2023/05/12 14:20:00,52.9,27.0
2023/05/12 14:30:00,51.9,27.1
2023/05/12 14:40:00,48.3,27.0
2023/05/12 14:50:00,43.7,26.9
2023/05/12 15:00:00,48.1,26.9
2023/05/12 15:10:00,49.4,27.2
2023/05/12 15:20:00,---,27.2
2023/05/12 15:30:00,---,26.3
2023/05/12 15:40:00,47.6,26.2
2023/05/12 15:50:00,47.6,25.3
2023/05/12 16:00:00,45.0,24.6
2023/05/12 16:10:00,60.5,24.3
2023/05/12 16:20:00,64.4,24.5
2023/05/12 16:30:00,61.7,23.5
2023/05/12 16:40:00,59.5,23.4
2023/05/12 16:50:00,53.2,22.9
2023/05/12 17:00:00,54.5,22.1
2023/05/12 17:10:00,55.9,22.1
2023/05/12 17:20:00,56.0,22.1
2023/05/12 17:30:00,59.1,22.6
2023/05/12 17:40:00,59.6,22.0
2023/05/12 17:50:00,51.9,20.2
2023/05/12 18:00:00,51.7,18.6
2023/05/12 18:10:00,52.1,17.4
2023/05/12 18:20:00,53.7,17.0
2023/05/12 18:30:00,58.6,16.5
2023/05/12 18:40:00,59.8,16.6
2023/05/12 18:50:00,57.5,16.0
2023/05/12 19:00:00,53.8,15.7
2023/05/12 19:10:00,53.0,15.9
2023/05/12 19:20:00,54.6,15.1
2023/05/12 19:30:00,55.2,14.8
2023/05/12 19:40:00,54.7,14.5
2023/05/12 19:50:00,53.6,14.0
2023/05/12 20:00:00,53.0,14.5
2023/05/12 20:10:00,56.6,14.9
2023/05/12 20:20:00,58.4,13.8
2023/05/12 20:30:00,57.3,14.4
2023/05/12 20:40:00,58.0,14.3
2023/05/12 20:50:00,54.3,13.4
2023/05/12 21:00:00,53.4,13.4
2023/05/12 21:10:00,54.1,13.5
2023/05/12 21:20:00,56.2,13.9
2023/05/12 21:30:00,58.8,13.7
2023/05/12 21:40:00,61.2,13.3
2023/05/12 21:50:00,55.7,13.8
2023/05/12 22:00:00,52.9,13.8
2023/05/12 22:10:00,58.4,13.7
2023/05/12 22:20:00,53.9,13.8
2023/05/12 22:30:00,52.4,13.2
2023/05/12 22:40:00,53.3,13.7
2023/05/12 22:50:00,53.1,13.5
2023/05/12 23:00:00,55.9,13.5
2023/05/12 23:10:00,52.1,13.4
2023/05/12 23:20:00,51.9,13.4
2023/05/12 23:30:00,51.9,13.3
2023/05/12 23:40:00,53.7,13.1
2023/05/12 23:50:00,54.1,13.0
